Wetbulb
75.86 76.07 75.66 75.37 75.92 76.57 75.53 75.64 75.19 74.19 74.18 73.40 74.41 74.88 74.69 74.37 73.49 74.37 75.73 73.88 74.09 73.36 72.99 74.56 74.86 74.40 73.78 73.85 74.15 73.77 73.38 73.37 72.48 71.89 72.36 72.48 72.26 72.59 72.24 72.57 72.15 72.26 72.45
76.66 77.00 77.05 75.64 76.21 76.99 76.55 76.04 74.19 73.40 73.69 74.57 74.52 74.91 74.80 74.60 73.93 74.16 74.94 75.62 73.98 73.58 73.87 72.69 72.98 73.27 73.66 73.25 72.87 72.86 73.33 73.57 73.12 72.90 72.93 72.66 72.75 72.82 72.85 72.62 73.15 73.43 73.01
76.20 76.57 76.73 77.36 76.10 76.00 75.44 76.98 75.64 74.83 73.34 74.05 74.60 74.55 74.66 74.33 73.72 73.69 74.91 75.61 75.38 74.07 73.41 73.30 73.59 73.08 72.73 72.57 72.86 72.99 73.15 73.08 72.73 72.63 73.11 73.53 73.15 72.67 72.91 73.19 73.24 72.81 72.69
75.97 77.47 76.83 76.38 76.24 75.83 76.24 76.21 75.42 73.61 71.53 72.85 73.37 73.72 74.09 74.28 73.70 73.63 74.58 74.76 75.35 75.17 74.80 73.59 73.72 74.17 73.97 73.83 73.71 72.91 72.42 72.31 72.00 72.29 72.67 73.52 72.88 73.23 73.14 72.69 72.71 72.67 72.62
76.19 77.36 76.95 76.54 76.75 76.51 76.29 75.94 75.64 75.76 72.91 72.21 71.95 72.96 73.78 73.87 73.62 73.00 74.25 74.53 75.01 75.36 75.71 74.36 73.81 73.77 73.90 73.56 73.99 73.96 74.15 74.13 74.24 74.21 73.94 73.84 73.69 73.14 72.56 72.69 72.47 72.32 72.33
76.67 76.94 76.78 76.79 76.71 77.30 75.53 75.27 73.14 71.83 74.17 73.37 69.77 68.73 72.85 73.87 74.46 73.66 74.13 74.29 74.56 74.69 75.60 75.96 75.83 74.85 73.36 73.84 73.91 73.68 73.75 74.17 73.79 73.77 73.76 73.70 73.45 72.79 72.44 72.60 71.66 71.91 72.09
77.00 77.40 76.68 76.40 76.47 75.87 76.04 75.53 73.04 71.92 70.59 71.68 70.25 69.86 70.50 72.18 72.87 73.41 74.45 74.47 73.91 74.59 75.05 75.66 75.36 75.13 74.47 72.81 73.55 73.51 73.16 73.30 73.24 73.42 73.45 73.57 73.00 72.63 71.86 71.84 71.59 71.40 71.59
77.58 77.61 77.07 76.41 76.38 75.55 76.25 75.46 74.36 71.03 71.22 71.50 69.67 69.57 66.52 68.42 71.27 72.54 73.18 73.18 73.93 74.93 74.88 74.60 75.19 75.05 75.20 74.85 73.58 72.53 72.77 72.96 72.91 73.09 72.53 72.24 72.43 72.26 71.77 71.27 70.32 69.57 69.50
77.31 78.07 77.21 76.55 76.30 77.51 77.78 76.51 74.78 72.34 69.65 71.99 70.95 69.69 65.68 65.22 68.78 70.77 71.13 72.44 73.54 73.45 74.31 74.47 74.38 74.71 74.70 74.82 73.41 72.68 72.81 72.21 72.40 72.03 71.88 71.62 71.62 71.45 70.78 69.28 67.79 67.41 67.09
76.72 77.50 78.09 77.29 77.81 76.33 77.12 76.03 75.76 74.08 72.54 70.30 71.46 72.03 70.97 70.16 66.93 66.02 69.61 71.07 72.19 72.47 73.28 73.50 73.42 73.68 74.40 74.00 72.60 71.78 71.05 72.10 71.69 71.62 71.06 70.68 70.47 69.70 68.17 66.69 66.68 66.44 66.34
76.64 76.81 77.58 77.40 77.77 77.25 77.45 76.71 76.21 75.42 72.73 71.47 71.40 72.13 72.59 71.29 70.29 68.21 66.74 68.80 70.00 71.10 72.06 73.16 72.88 73.22 74.44 74.19 73.82 72.82 70.51 71.71 71.39 71.05 69.77 68.63 67.91 67.37 67.06 66.80 66.59 66.57 66.59
75.64 76.66 77.03 77.51 77.56 77.08 76.93 76.72 77.48 76.61 75.38 73.72 71.66 72.24 71.62 70.94 70.30 69.05 67.77 69.48 68.82 71.20 71.66 72.34 72.54 72.61 73.53 74.16 74.34 72.51 69.95 70.31 70.18 69.70 69.50 69.83 69.27 68.09 67.74 67.66 67.52 67.37 67.48
74.41 75.78 76.94 77.03 76.89 77.68 77.66 77.26 77.25 76.74 76.15 74.89 74.65 71.50 71.49 70.98 71.91 71.68 69.83 69.50 68.51 71.41 71.11 71.77 72.33 72.73 72.85 74.03 74.25 72.64 71.74 69.22 69.01 68.01 67.69 68.29 69.24 70.48 70.65 70.12 69.47 69.28 69.31
74.06 76.61 76.83 77.03 77.19 77.47 77.47 77.47 76.39 76.15 76.63 75.80 75.77 75.69 74.01 72.97 71.33 70.87 69.90 68.75 67.31 69.37 70.75 71.70 73.29 72.65 72.91 73.45 74.44 72.39 72.81 68.75 68.06 66.95 66.23 66.68 67.43 68.35 69.26 70.07 70.64 71.10 70.95
74.13 76.01 76.68 76.75 76.95 77.14 77.41 77.66 76.20 76.65 76.42 76.56 76.32 76.37 75.25 74.62 73.58 72.62 71.41 70.72 69.06 66.44 67.16 71.30 70.99 73.59 73.08 73.33 73.69 74.38 74.22 70.64 67.63 67.02 65.51 65.00 65.63 66.72 67.56 68.14 68.32 68.53 68.66
75.03 75.40 76.47 76.75 76.97 77.14 77.30 77.40 76.58 77.19 77.06 76.52 75.93 76.16 76.09 74.97 74.75 73.89 72.96 72.06 71.17 69.26 67.19 71.10 71.20 72.68 73.37 72.15 72.81 72.78 73.47 70.78 68.39 66.76 65.80 64.89 64.65 65.46 66.18 66.72 66.86 67.17 67.26
75.44 75.75 76.44 76.61 76.55 76.72 77.16 77.24 76.97 76.89 76.59 76.88 76.91 76.18 76.32 76.95 75.37 74.79 74.13 73.24 72.06 70.91 68.41 69.94 71.70 72.68 73.04 73.42 73.25 72.89 72.87 73.29 72.52 66.46 65.70 65.11 64.09 64.23 65.00 65.37 65.47 65.60 66.08
75.67 76.00 76.22 76.21 76.52 76.56 76.80 76.68 76.06 76.15 76.45 76.13 76.54 76.60 76.12 75.82 76.22 76.36 75.27 74.88 73.59 73.70 70.67 71.26 72.56 71.58 72.62 73.99 73.96 73.70 72.67 72.16 72.54 69.33 65.33 64.32 63.86 63.48 63.22 63.54 63.46 63.48 63.18
75.68 75.32 75.61 75.85 76.04 76.33 76.38 76.67 76.59 76.60 76.47 76.55 76.75 76.71 76.57 76.71 76.04 75.70 75.86 75.07 74.84 74.45 73.48 71.34 71.03 72.21 71.66 71.58 72.39 73.14 72.58 73.44 72.49 69.65 65.34 63.86 63.22 62.87 62.46 61.72 61.41 60.47 59.37
75.83 75.57 75.77 75.91 76.00 76.30 76.47 76.41 76.55 76.59 76.74 76.69 77.00 77.03 77.03 76.97 76.64 76.64 76.18 76.14 76.02 75.19 75.11 73.09 72.31 72.41 72.90 74.52 72.75 70.66 70.72 72.30 71.48 72.04 70.29 67.79 66.88 64.89 63.13 61.67 61.48 60.96 58.49
75.98 76.18 75.82 75.77 75.83 75.79 75.57 76.19 76.64 76.63 76.67 76.71 77.14 77.31 77.36 76.25 72.33 73.77 76.24 77.30 76.74 75.05 73.94 72.97 72.28 72.19 72.07 72.21 71.97 72.55 71.72 72.46 73.48 73.38 72.06 72.32 72.36 71.58 70.26 63.91 65.59 63.89 61.20
75.91 76.01 75.51 75.60 75.44 74.95 68.97 67.90 73.84 76.18 77.00 76.85 76.38 77.02 77.41 73.85 73.12 68.46 67.64 68.46 73.82 77.00 74.91 73.90 73.51 73.21 75.78 74.94 74.85 73.81 73.07 71.98 71.15 75.97 73.53 71.50 72.35 71.60 72.24 72.38 67.96 64.07 61.96
75.61 75.75 75.11 75.39 75.87 76.51 66.27 65.49 67.84 75.45 76.27 76.50 76.90 77.02 76.80 76.69 74.27 76.80 70.77 66.72 67.12 66.03 68.36 75.62 75.56 75.80 76.22 76.52 76.86 75.50 75.72 74.85 73.52 75.03 74.22 72.01 73.78 72.75 72.91 72.70 64.56 63.37 62.65
76.18 75.70 75.51 76.04 75.80 76.43 65.36 63.70 65.58 74.41 76.52 77.31 77.56 77.31 77.63 77.61 77.11 76.14 76.67 76.33 76.77 77.06 75.67 73.58 74.59 75.99 77.47 78.20 78.53 76.88 75.67 74.00 73.10 74.14 75.46 69.57 73.17 72.81 74.49 74.27 65.23 62.64 62.16
74.96 75.40 75.77 75.91 75.97 76.31 63.46 62.67 65.83 74.35 74.96 76.63 77.31 77.59 77.25 77.26 71.02 65.49 75.86 75.54 76.15 76.72 71.82 66.21 67.21 66.25 63.99 62.70 66.07 71.81 70.71 70.59 69.39 71.07 75.50 71.33 72.22 72.79 73.68 73.15 73.82 62.82 60.72
74.95 74.97 74.98 75.94 72.34 76.50 65.17 60.51 64.40 73.86 74.49 74.30 77.01 77.41 67.60 73.00 65.87 62.48 74.72 75.23 75.07 76.06 77.11 77.90 78.04 72.77 68.17 70.52 63.18 68.18 70.86 68.95 68.90 69.14 74.60 72.37 70.89 69.54 67.64 72.93 72.69 71.85 71.74
MSLP
1020.85 1020.96 1020.98 1021.29 1021.36 1021.52 1021.47 1021.29 1021.22 1021.31 1021.38 1021.36 1021.58 1021.80 1021.93 1022.20 1022.36 1022.31 1022.42 1023.19 1023.22 1023.30 1023.47 1023.53 1023.62 1023.74 1023.81 1023.93 1023.96 1024.03 1024.02 1024.04 1024.10 1024.08 1024.08 1024.16 1024.21 1024.21 1024.14 1024.07 1023.99 1023.91 1023.75
1020.98 1020.99 1021.09 1021.18 1021.34 1021.61 1021.60 1021.39 1021.37 1021.40 1021.39 1021.38 1021.79 1021.92 1022.11 1022.26 1022.54 1022.62 1022.55 1022.81 1023.33 1023.53 1023.61 1023.74 1023.78 1023.89 1023.91 1024.00 1024.02 1024.09 1024.13 1024.26 1024.21 1024.20 1024.14 1024.21 1024.12 1024.26 1024.19 1024.21 1024.04 1023.77 1023.77
1021.00 1021.05 1020.98 1021.09 1021.23 1021.61 1021.61 1021.48 1021.46 1021.52 1021.38 1021.40 1021.80 1022.06 1022.17 1022.40 1022.57 1022.75 1022.75 1022.82 1023.06 1023.60 1023.77 1023.82 1023.84 1023.94 1024.00 1024.00 1024.00 1024.13 1024.23 1024.28 1024.23 1024.24 1024.28 1024.27 1024.43 1024.30 1024.10 1024.05 1023.88 1023.94 1023.90
1021.03 1020.98 1021.03 1020.95 1021.34 1021.60 1021.54 1021.39 1021.25 1021.41 1021.76 1021.68 1021.92 1022.05 1022.30 1022.50 1022.78 1022.96 1022.91 1022.96 1023.07 1023.06 1023.61 1023.84 1023.91 1024.00 1024.06 1024.00 1024.02 1024.12 1024.32 1024.33 1024.19 1024.24 1024.22 1024.25 1024.28 1024.19 1024.16 1024.13 1023.94 1023.96 1023.90
1020.87 1020.88 1020.92 1021.06 1021.24 1021.36 1021.42 1021.20 1021.52 1021.64 1021.84 1021.87 1021.98 1022.26 1022.33 1022.52 1022.80 1022.81 1022.96 1023.11 1023.24 1023.31 1023.28 1023.77 1023.95 1024.00 1024.00 1023.88 1023.94 1024.07 1024.15 1024.20 1024.16 1024.11 1024.16 1024.12 1024.19 1024.20 1024.01 1023.86 1023.82 1023.89 1023.87
1020.72 1020.87 1021.03 1021.09 1021.11 1021.23 1021.19 1021.48 1021.68 1021.99 1022.05 1022.08 1022.08 1022.64 1022.56 1022.54 1022.72 1022.77 1022.75 1022.90 1023.18 1023.34 1023.29 1023.42 1023.46 1023.36 1023.91 1023.90 1023.83 1023.98 1023.96 1024.08 1024.08 1024.11 1024.04 1024.02 1024.03 1024.23 1024.01 1023.86 1023.85 1023.92 1023.87
1020.56 1020.77 1020.84 1021.12 1021.10 1021.12 1021.23 1021.67 1021.85 1022.13 1022.36 1022.51 1022.26 1022.44 1022.68 1022.73 1022.77 1022.71 1022.77 1022.76 1022.94 1023.13 1023.26 1023.29 1023.36 1023.33 1023.34 1023.82 1023.85 1023.93 1023.90 1023.81 1023.86 1023.90 1023.91 1023.92 1024.02 1023.93 1023.88 1023.94 1024.02 1024.12 1024.14
1020.39 1020.62 1020.88 1020.96 1021.20 1021.12 1021.25 1021.48 1021.73 1021.90 1022.25 1022.53 1022.17 1022.22 1022.18 1022.66 1022.66 1022.67 1022.69 1022.68 1022.78 1022.97 1023.07 1023.39 1023.48 1023.54 1023.48 1023.40 1023.58 1023.86 1023.95 1023.96 1023.99 1024.03 1024.03 1024.10 1024.08 1024.09 1024.11 1024.28 1024.28 1024.40 1024.47
1020.23 1020.53 1020.82 1020.85 1021.14 1021.16 1021.32 1021.35 1021.62 1021.76 1021.81 1022.42 1022.52 1022.17 1022.12 1021.89 1022.31 1022.65 1022.73 1022.66 1022.86 1022.85 1022.96 1023.19 1023.26 1023.30 1023.44 1023.40 1023.65 1023.66 1023.94 1024.02 1024.02 1024.04 1024.06 1024.16 1024.16 1024.14 1024.10 1024.16 1024.31 1024.38 1024.50
1020.06 1020.35 1020.55 1020.68 1020.83 1020.90 1021.11 1021.16 1021.26 1021.64 1021.85 1021.92 1022.44 1022.52 1022.61 1022.50 1022.06 1021.88 1022.33 1022.44 1022.68 1022.73 1022.79 1022.87 1022.82 1022.89 1023.17 1023.11 1023.41 1023.58 1023.82 1023.81 1023.82 1023.91 1023.97 1023.96 1024.02 1024.02 1024.13 1024.25 1024.36 1024.46 1024.59
1019.77 1020.03 1020.26 1020.38 1020.66 1020.84 1020.96 1021.10 1021.34 1021.68 1021.89 1021.85 1022.03 1022.26 1022.48 1022.48 1022.54 1022.10 1021.72 1022.02 1022.39 1022.39 1022.28 1022.38 1022.28 1022.40 1022.75 1022.90 1022.87 1023.14 1023.51 1023.46 1023.63 1023.70 1023.72 1023.74 1023.86 1023.93 1024.00 1024.00 1024.17 1024.27 1024.30
1019.38 1019.72 1019.93 1020.22 1020.42 1020.55 1020.85 1020.90 1021.04 1021.52 1021.77 1022.02 1022.14 1022.27 1022.07 1022.01 1021.94 1022.08 1022.05 1022.08 1022.03 1021.80 1021.89 1021.90 1022.16 1022.16 1022.26 1022.38 1022.56 1022.85 1023.13 1023.15 1023.26 1023.39 1023.47 1023.60 1023.78 1023.87 1023.83 1023.92 1024.02 1024.00 1024.05
1018.91 1019.22 1019.55 1019.96 1020.08 1020.36 1020.52 1020.73 1021.08 1021.25 1021.56 1021.81 1022.16 1022.04 1022.22 1022.18 1022.23 1022.25 1022.20 1021.93 1021.86 1021.79 1021.64 1021.54 1021.41 1021.65 1021.72 1021.88 1021.95 1022.49 1022.66 1022.85 1022.94 1023.08 1023.16 1023.33 1023.44 1023.53 1023.61 1023.64 1023.60 1023.64 1023.62
1018.38 1018.60 1018.96 1019.28 1019.68 1019.99 1020.21 1020.50 1020.67 1020.98 1021.25 1021.63 1021.86 1022.07 1022.04 1022.15 1022.29 1022.26 1022.05 1021.99 1021.65 1021.58 1021.46 1021.17 1020.98 1021.17 1021.34 1021.33 1021.27 1021.78 1021.87 1022.22 1022.43 1022.56 1022.74 1022.94 1023.11 1023.25 1023.29 1023.32 1023.28 1023.30 1023.28
1018.04 1018.32 1018.50 1018.87 1019.23 1019.56 1019.83 1020.08 1020.39 1020.64 1020.98 1021.28 1021.51 1021.81 1021.96 1021.91 1022.09 1022.07 1022.22 1022.13 1021.86 1021.32 1020.82 1020.82 1020.81 1021.00 1021.01 1021.04 1020.96 1021.06 1021.04 1021.10 1021.58 1021.92 1022.06 1022.30 1022.48 1022.60 1022.69 1022.80 1022.80 1022.79 1022.90
1017.58 1017.80 1018.20 1018.42 1018.71 1019.03 1019.38 1019.77 1020.02 1020.28 1020.68 1020.86 1021.02 1021.38 1021.58 1021.55 1021.74 1021.81 1021.86 1021.97 1022.02 1021.78 1021.13 1020.82 1020.54 1020.67 1020.65 1020.53 1020.51 1020.67 1020.40 1020.62 1020.84 1021.13 1021.28 1021.42 1021.48 1021.58 1021.69 1021.81 1021.91 1022.14 1022.31
1017.00 1017.36 1017.73 1018.03 1018.35 1018.61 1018.86 1019.30 1019.56 1019.86 1020.24 1020.45 1020.68 1020.89 1021.04 1021.27 1021.22 1021.27 1021.48 1021.56 1021.56 1021.64 1021.09 1020.29 1020.48 1020.42 1020.57 1020.32 1019.96 1020.12 1020.08 1019.96 1019.70 1020.06 1020.28 1020.41 1020.50 1020.61 1020.85 1020.92 1020.98 1021.12 1021.22
1016.37 1016.78 1017.18 1017.49 1017.83 1018.09 1018.42 1018.80 1019.02 1019.19 1019.56 1019.72 1019.96 1020.31 1020.48 1020.62 1020.88 1020.95 1020.93 1020.98 1020.89 1020.96 1020.97 1020.17 1019.98 1019.91 1019.97 1019.62 1019.54 1019.49 1019.31 1018.98 1018.92 1018.73 1019.17 1019.32 1019.39 1019.42 1019.52 1019.64 1019.81 1020.00 1020.17
1015.60 1016.05 1016.53 1016.84 1017.27 1017.58 1017.89 1018.21 1018.44 1018.61 1018.83 1019.02 1019.16 1019.40 1019.64 1019.94 1020.08 1020.04 1020.20 1020.09 1020.10 1020.34 1020.34 1020.08 1019.36 1019.40 1019.28 1019.30 1019.06 1018.86 1018.77 1018.26 1018.02 1017.75 1018.10 1018.12 1018.16 1018.18 1018.28 1018.38 1018.52 1018.74 1018.86
1014.80 1015.24 1015.63 1016.04 1016.52 1016.93 1017.26 1017.51 1017.81 1018.02 1018.13 1018.30 1018.47 1018.64 1018.84 1019.06 1019.19 1019.33 1019.45 1019.55 1019.59 1019.58 1019.47 1019.43 1018.82 1018.46 1018.30 1018.41 1018.43 1018.08 1017.50 1017.16 1016.86 1016.70 1016.36 1016.50 1016.42 1016.63 1016.83 1016.92 1016.96 1017.17 1017.33
1013.91 1014.39 1014.91 1015.34 1015.81 1016.18 1016.42 1016.72 1017.00 1017.28 1017.43 1017.59 1017.72 1017.93 1018.04 1018.16 1018.38 1018.56 1018.67 1018.76 1019.03 1019.04 1018.84 1018.49 1017.97 1017.71 1017.35 1017.34 1017.29 1016.94 1016.62 1016.20 1015.96 1016.01 1015.57 1015.20 1014.92 1014.88 1015.11 1015.67 1015.53 1015.55 1015.58
1013.11 1013.72 1014.12 1014.55 1014.94 1015.19 1015.38 1015.78 1016.20 1016.46 1016.68 1016.85 1016.85 1017.00 1017.23 1017.46 1017.69 1017.91 1018.10 1018.30 1018.40 1018.21 1018.05 1017.79 1017.03 1016.52 1016.46 1016.75 1016.57 1016.48 1016.20 1015.64 1014.50 1014.75 1014.32 1014.15 1014.30 1013.55 1013.32 1013.08 1012.88 1013.26 1013.52
1012.35 1012.85 1013.41 1013.72 1014.04 1014.42 1014.66 1015.02 1015.50 1015.85 1015.86 1015.98 1016.12 1016.20 1016.33 1016.34 1016.74 1016.99 1017.06 1017.28 1017.46 1017.45 1017.36 1017.05 1016.43 1016.17 1015.76 1016.06 1016.02 1015.89 1015.67 1015.08 1014.14 1014.07 1014.33 1012.59 1013.14 1012.00 1011.95 1011.55 1011.57 1011.85 1012.28
1011.35 1011.88 1012.44 1012.85 1013.28 1013.59 1014.04 1014.48 1014.94 1015.40 1015.24 1015.11 1015.22 1015.34 1015.56 1015.61 1015.87 1016.16 1016.27 1016.09 1015.93 1015.80 1015.96 1016.20 1015.83 1015.27 1015.25 1015.23 1015.18 1015.15 1015.16 1014.88 1014.04 1013.73 1013.88 1012.65 1012.09 1011.15 1010.92 1010.40 1010.45 1010.76 1011.32
1010.65 1011.02 1011.48 1011.95 1012.30 1012.64 1013.06 1013.52 1014.21 1014.51 1014.29 1014.19 1014.36 1014.54 1014.76 1014.90 1015.13 1015.50 1015.67 1015.25 1014.83 1014.58 1014.43 1014.76 1014.71 1014.69 1014.91 1015.05 1015.23 1015.36 1015.18 1014.78 1013.80 1012.55 1012.67 1012.13 1011.20 1010.45 1009.96 1009.26 1009.00 1009.23 1009.64
1009.61 1010.17 1010.52 1010.84 1011.24 1011.59 1012.14 1012.61 1013.30 1013.50 1013.24 1013.24 1013.44 1013.60 1013.89 1014.12 1014.37 1014.67 1014.90 1014.68 1014.09 1013.81 1013.71 1013.47 1013.94 1014.20 1014.12 1013.96 1014.30 1014.86 1014.58 1014.25 1013.69 1012.50 1011.61 1011.46 1010.89 1010.66 1009.12 1008.11 1008.06 1008.12 1008.16
Wind_Speed
3 3 2 2 2 2 2 2 3 4 4 5 5 6 5 5 5 3 3 3 3 3 4 4 6 6 5 4 4 4 4 4 3 2 2 2 3 3 3 4 6 6 7
1 1 1 3 3 1 0 2 3 4 5 6 7 6 5 5 4 3 3 4 2 2 4 4 3 3 4 3 2 2 2 3 1 2 1 1 1 3 4 5 6 7 7
2 1 1 2 3 3 3 2 3 3 5 5 7 6 5 5 4 4 2 2 4 5 2 2 4 4 4 3 3 3 2 2 2 2 3 5 5 5 4 4 5 6 7
2 2 1 2 3 3 2 2 3 3 3 3 4 4 4 4 3 3 2 0 1 0 6 3 4 4 4 5 5 5 5 5 5 5 5 5 4 5 5 5 5 6 6
4 2 2 3 4 3 3 3 3 2 3 4 4 4 4 3 3 2 1 1 2 1 1 5 2 4 4 5 5 5 6 6 7 7 7 6 6 5 4 4 4 5 5
5 4 3 2 3 2 4 4 3 3 2 3 5 3 2 2 2 2 1 1 1 1 1 1 1 3 2 5 5 4 6 6 7 7 8 6 6 4 4 3 2 3 5
6 4 3 3 3 3 3 4 5 5 4 4 4 4 3 1 3 2 2 1 1 1 1 0 1 1 2 1 2 3 5 6 5 5 5 4 4 2 1 3 3 4 6
8 6 4 4 3 4 4 4 3 3 3 2 2 2 3 3 2 3 3 3 2 1 1 1 1 2 2 2 3 3 3 4 3 2 2 3 3 4 4 4 3 4 5
8 7 7 4 4 3 4 3 4 3 4 2 2 1 2 1 1 2 3 4 3 3 2 2 3 3 3 2 2 2 1 1 2 0 1 2 2 4 4 4 4 5 5
9 9 8 8 6 4 3 4 4 3 3 4 3 2 2 2 1 2 3 3 4 5 5 4 3 5 4 4 2 0 2 4 3 3 3 4 5 5 5 4 5 3 3
9 9 9 8 6 4 5 5 6 5 3 3 2 2 2 2 1 2 1 1 4 5 5 6 5 5 5 5 4 4 7 7 6 6 6 7 6 6 7 8 6 5 5
7 9 9 7 6 5 6 5 5 6 4 3 3 3 2 2 1 3 2 2 3 2 4 5 6 6 6 6 7 4 9 10 9 9 8 7 7 7 8 8 7 7 6
8 8 9 9 8 8 6 5 5 5 5 5 5 4 3 3 2 1 3 2 3 1 3 5 6 7 6 7 7 9 11 11 10 9 9 9 9 9 9 8 9 9 8
9 9 10 10 10 8 7 7 6 6 5 5 6 4 3 3 3 4 4 4 4 3 3 6 3 5 6 7 7 9 9 12 12 11 11 10 10 10 11 10 10 9 9
8 11 11 10 10 10 10 8 7 7 6 6 6 6 6 4 4 4 4 4 5 6 6 1 2 2 4 6 8 10 10 10 14 14 14 13 12 12 12 12 12 12 11
11 11 11 11 10 10 10 10 8 8 7 7 6 6 6 5 5 5 5 4 4 5 6 3 4 4 4 5 7 10 12 9 12 15 15 16 16 16 15 15 15 13 12
13 13 12 11 10 11 11 10 10 10 9 9 8 8 9 8 7 6 6 6 6 6 9 9 6 6 5 8 7 8 9 10 10 16 17 18 18 18 18 17 17 15 15
13 13 13 12 11 11 11 11 11 11 11 11 11 10 11 8 10 9 8 9 8 8 8 12 9 8 9 9 10 9 8 9 10 11 16 18 19 20 20 19 18 17 17
14 14 13 14 13 12 11 11 12 12 12 12 12 12 11 11 11 9 10 9 9 8 8 9 11 9 8 8 9 10 10 11 10 13 13 17 19 21 21 21 21 19 19
15 15 15 14 14 13 13 12 12 12 12 12 12 12 13 12 13 12 11 11 10 9 9 10 11 11 11 9 8 11 11 10 11 11 13 16 13 21 25 23 24 23 22
15 15 15 15 14 14 12 15 14 13 13 13 13 13 13 14 13 14 10 10 10 10 9 10 11 11 11 10 11 10 12 12 11 10 12 12 12 12 14 21 22 27 26
15 15 16 15 16 13 14 15 15 13 14 13 13 13 13 13 14 15 15 16 14 12 13 12 13 14 12 12 11 12 12 13 15 9 10 11 10 13 13 14 19 27 27
15 15 16 16 16 16 14 16 17 15 14 14 14 13 13 12 12 14 13 16 16 17 19 16 17 15 16 13 13 14 14 15 15 11 10 16 11 15 13 15 18 21 24
15 15 16 15 15 14 12 15 14 17 15 16 15 15 15 15 14 14 15 16 16 15 14 13 18 18 17 15 14 13 14 13 14 13 12 16 13 15 13 14 15 18 18
14 15 14 16 16 16 16 17 14 16 16 17 15 16 16 16 14 12 16 17 17 15 12 18 20 18 13 11 10 9 10 10 10 14 10 11 15 15 14 15 14 17 21
15 13 15 16 16 17 14 17 17 13 15 14 14 15 14 18 12 14 16 16 17 15 15 15 12 13 15 14 16 12 10 10 10 9 6 7 9 8 9 11 11 12 13
Wind_Direction
147 157 151 134 90 62 12 43 64 70 73 116 143 135 123 101 112 129 126 133 139 139 124 113 129 124 130 132 112 117 131 123 106 104 85 50 40 44 34 13 7 11 11
142 116 157 132 108 131 276 52 51 57 71 100 121 131 121 117 112 128 110 134 146 182 180 163 168 157 144 143 148 133 122 85 88 46 39 5 324 354 347 360 352 353 354
161 208 306 106 97 104 106 77 106 99 79 100 106 121 125 107 110 123 136 138 161 196 230 220 208 198 190 201 209 208 224 226 256 283 314 318 333 330 336 332 340 346 348
180 136 177 115 108 125 127 100 64 93 72 108 106 105 104 107 102 113 118 119 100 2 174 220 229 227 228 247 244 242 247 257 264 273 286 295 304 310 325 337 328 336 340
198 196 197 160 160 159 151 120 95 99 128 106 127 110 100 102 120 129 110 127 88 4 16 135 255 246 246 256 262 257 261 265 264 272 277 289 296 302 306 308 313 334 342
197 187 184 197 204 180 134 111 92 87 135 134 104 100 104 117 151 165 169 190 82 41 239 269 170 169 252 295 301 295 287 282 279 282 278 281 283 298 302 306 1 47 62
187 178 179 173 190 214 123 129 133 124 122 138 142 115 95 125 192 207 219 238 141 144 289 249 291 297 157 196 331 335 316 314 326 323 320 274 293 276 187 117 101 80 78
182 178 195 196 173 179 165 161 156 140 115 166 119 124 163 162 180 216 230 231 241 255 269 234 299 269 278 306 18 327 348 346 1 29 44 50 68 106 109 106 94 86 83
188 184 189 196 198 210 185 160 163 171 144 156 210 319 185 236 170 172 204 226 229 236 256 254 262 253 256 276 228 169 135 329 342 62 128 116 118 131 138 137 123 121 111
192 195 199 198 191 208 192 168 165 162 186 164 171 133 43 10 313 153 181 211 229 235 227 234 239 238 240 246 191 213 213 226 241 246 209 199 189 182 158 141 143 144 129
202 201 204 210 190 196 199 194 174 185 178 189 191 159 173 181 166 287 3 132 221 236 236 227 234 239 228 240 236 190 204 219 215 224 225 217 210 196 182 178 179 186 194
200 209 201 203 203 189 198 213 210 187 192 175 193 212 234 272 255 251 281 330 311 229 241 231 233 241 238 232 232 199 204 216 217 217 224 227 225 220 213 207 207 215 217
207 199 198 198 198 206 206 212 208 212 196 206 195 218 238 254 260 280 281 302 293 285 263 241 236 233 234 232 242 211 206 219 219 221 222 225 228 232 238 233 229 233 239
220 204 200 204 204 204 211 208 215 222 208 209 212 220 242 235 229 243 271 279 271 255 250 270 232 236 234 234 239 190 235 208 221 220 223 224 229 230 239 243 243 243 243
219 214 205 204 208 208 213 211 224 221 217 217 217 224 232 230 224 232 234 255 284 301 309 113 282 204 251 243 242 238 239 219 211 216 223 223 224 225 228 236 242 245 244
212 209 208 208 207 210 214 217 224 225 223 225 233 216 228 239 234 231 229 230 240 272 280 283 267 278 266 258 242 239 245 237 219 220 218 222 224 224 225 226 230 233 239
203 208 207 208 211 213 214 217 230 236 226 229 228 226 231 231 242 237 232 235 238 235 261 275 267 287 268 250 257 238 251 250 248 215 222 223 222 225 226 228 228 225 227
204 211 209 207 210 215 216 219 227 234 231 232 232 229 232 229 232 238 236 237 239 237 255 270 276 272 257 273 265 256 251 249 253 232 214 226 225 225 223 224 225 224 225
206 210 211 212 209 215 215 219 228 233 233 235 237 235 239 232 235 243 236 246 243 243 240 264 278 276 272 277 270 255 255 255 250 244 222 227 228 229 225 224 224 222 224
204 210 210 214 213 216 218 222 225 231 235 233 237 240 242 239 241 244 244 249 254 257 251 257 270 275 271 278 273 280 278 264 262 267 251 247 239 229 229 227 225 223 223
207 208 212 215 216 220 221 221 222 226 232 238 239 239 240 243 237 238 243 243 251 249 256 263 266 268 267 265 267 282 284 285 279 270 270 270 258 242 237 232 243 229 225
208 209 212 216 217 221 217 206 217 223 229 235 241 242 245 240 239 231 232 242 252 249 256 266 274 274 274 273 280 282 287 289 290 277 263 265 261 263 252 246 228 226 219
207 210 214 216 220 223 213 206 206 232 235 238 242 246 249 247 235 255 235 227 239 238 244 261 269 266 277 275 276 274 272 270 274 287 289 276 263 264 251 262 232 221 228
206 209 214 216 221 227 207 209 204 230 240 241 241 243 247 253 253 251 258 262 260 254 237 238 248 259 262 268 267 271 275 277 277 271 260 269 278 274 273 262 242 228 233
208 213 216 217 218 228 204 205 197 229 240 242 242 242 244 250 248 215 246 264 267 264 253 232 243 261 267 270 269 285 273 273 274 282 272 260 273 278 278 275 268 218 216
207 211 219 222 222 229 209 205 199 228 236 242 240 241 228 243 234 211 232 252 262 268 269 276 260 249 255 260 247 240 258 259 263 283 281 268 278 280 275 274 276 265 239